Information on these data can be found in provided Readme document
Contact Info: Zachary Fasnacht (zachary.fasnacht@ssaihq.com); Nickolay Krotkov (nickolay.a.krotkov@nasa.gov); Lok Lamsal (lok.lamsal@nasa.gov)

FillValue: -999.
ScaleFactor: 1e15
Units: molecules/cm^2

Date(yyyy-mm-dd),City,Country,LonCenter,LatCenter,BoundingCoordinates,Median,Q1,Q3,Mean,Baseline_Median,Baseline_Q1,Baseline_Q3,Baseline_Mean,NumGoodSamples,NumTotalSamples
2015-01-01,Bata,EquatorialGuinea,9.779,1.8533,[9.279 1.3533 10.279 2.3533],0.437,0.095,0.754,0.433,0.329,0.033,0.704,0.386,176.0,498.0
2015-01-02,Bata,EquatorialGuinea,9.779,1.8533,[9.279 1.3533 10.279 2.3533],0.398,0.095,0.712,0.419,0.303,0.031,0.695,0.375,156.0,528.0
2015-01-03,Bata,EquatorialGuinea,9.779,1.8533,[9.279 1.3533 10.279 2.3533],0.327,0.041,0.637,0.368,0.301,0.013,0.662,0.355,166.0,500.0
2015-01-04,Bata,EquatorialGuinea,9.779,1.8533,[9.279 1.3533 10.279 2.3533],0.253,0.019,0.525,0.304,0.259,-0.016,0.611,0.312,160.0,526.0
2015-01-05,Bata,EquatorialGuinea,9.779,1.8533,[9.279 1.3533 10.279 2.3533],0.285,0.02,0.569,0.323,0.267,-0.019,0.61,0.313,173.0,515.0
2015-01-06,Bata,EquatorialGuinea,9.779,1.8533,[9.279 1.3533 10.279 2.3533],0.285,0.02,0.57,0.322,0.258,-0.009,0.593,0.307,203.0,522.0
2015-01-07,Bata,EquatorialGuinea,9.779,1.8533,[9.279 1.3533 10.279 2.3533],0.285,-0.009,0.57,0.314,0.255,-0.032,0.587,0.289,213.0,532.0
2015-01-08,Bata,EquatorialGuinea,9.779,1.8533,[9.279 1.3533 10.279 2.3533],0.261,-0.011,0.569,0.302,0.229,-0.048,0.577,0.282,229.0,509.0
2015-01-09,Bata,EquatorialGuinea,9.779,1.8533,[9.279 1.3533 10.279 2.3533],0.253,-0.021,0.569,0.294,0.225,-0.055,0.579,0.279,214.0,534.0
2015-01-10,Bata,EquatorialGuinea,9.779,1.8533,[9.279 1.3533 10.279 2.3533],0.253,-0.021,0.569,0.294,0.253,-0.048,0.613,0.303,214.0,480.0
2015-01-11,Bata,EquatorialGuinea,9.779,1.8533,[9.279 1.3533 10.279 2.3533],0.254,-0.045,0.569,0.296,0.259,-0.063,0.626,0.309,201.0,514.0
2015-01-12,Bata,EquatorialGuinea,9.779,1.8533,[9.279 1.3533 10.279 2.3533],0.247,-0.107,0.51,0.246,0.244,-0.069,0.595,0.297,185.0,491.0
2015-01-13,Bata,EquatorialGuinea,9.779,1.8533,[9.279 1.3533 10.279 2.3533],0.247,-0.107,0.528,0.258,0.263,-0.063,0.618,0.305,203.0,505.0
2015-01-14,Bata,EquatorialGuinea,9.779,1.8533,[9.279 1.3533 10.279 2.3533],0.247,-0.107,0.528,0.264,0.285,-0.074,0.601,0.303,198.0,505.0
2015-01-15,Bata,EquatorialGuinea,9.779,1.8533,[9.279 1.3533 10.279 2.3533],0.253,-0.044,0.551,0.279,0.297,-0.045,0.631,0.323,226.0,497.0
2015-01-16,Bata,EquatorialGuinea,9.779,1.8533,[9.279 1.3533 10.279 2.3533],0.261,-0.021,0.57,0.291,0.303,-0.036,0.636,0.33,231.0,514.0
2015-01-17,Bata,EquatorialGuinea,9.779,1.8533,[9.279 1.3533 10.279 2.3533],0.254,-0.054,0.538,0.272,0.294,-0.054,0.623,0.312,248.0,482.0
2015-01-18,Bata,EquatorialGuinea,9.779,1.8533,[9.279 1.3533 10.279 2.3533],0.3,-0.045,0.646,0.288,0.298,-0.048,0.622,0.314,226.0,512.0
2015-01-19,Bata,EquatorialGuinea,9.779,1.8533,[9.279 1.3533 10.279 2.3533],0.225,-0.025,0.516,0.255,0.304,-0.031,0.626,0.324,232.0,485.0
2015-01-20,Bata,EquatorialGuinea,9.779,1.8533,[9.279 1.3533 10.279 2.3533],0.225,-0.01,0.528,0.265,0.295,-0.033,0.623,0.316,241.0,511.0
2015-01-21,Bata,EquatorialGuinea,9.779,1.8533,[9.279 1.3533 10.279 2.3533],0.24,-0.004,0.551,0.279,0.284,-0.039,0.619,0.306,218.0,498.0
2015-01-22,Bata,EquatorialGuinea,9.779,1.8533,[9.279 1.3533 10.279 2.3533],0.24,-0.004,0.56,0.287,0.257,-0.063,0.597,0.288,222.0,506.0
2015-01-23,Bata,EquatorialGuinea,9.779,1.8533,[9.279 1.3533 10.279 2.3533],0.257,0.003,0.561,0.294,0.275,-0.062,0.604,0.295,228.0,515.0
2015-01-24,Bata,EquatorialGuinea,9.779,1.8533,[9.279 1.3533 10.279 2.3533],0.225,-0.004,0.56,0.279,0.274,-0.063,0.603,0.296,237.0,491.0
2015-01-25,Bata,EquatorialGuinea,9.779,1.8533,[9.279 1.3533 10.279 2.3533],0.225,-0.004,0.56,0.279,0.269,-0.061,0.606,0.29,237.0,538.0
2015-01-26,Bata,EquatorialGuinea,9.779,1.8533,[9.279 1.3533 10.279 2.3533],0.225,-0.004,0.56,0.279,0.264,-0.054,0.597,0.287,237.0,505.0
2015-01-27,Bata,EquatorialGuinea,9.779,1.8533,[9.279 1.3533 10.279 2.3533],0.257,0.011,0.646,0.314,0.245,-0.072,0.589,0.27,222.0,539.0
2015-01-28,Bata,EquatorialGuinea,9.779,1.8533,[9.279 1.3533 10.279 2.3533],0.225,0.003,0.501,0.277,0.207,-0.087,0.552,0.25,202.0,516.0
2015-01-29,Bata,EquatorialGuinea,9.779,1.8533,[9.279 1.3533 10.279 2.3533],0.222,-0.04,0.501,0.271,0.189,-0.102,0.531,0.237,219.0,529.0
2015-01-30,Bata,EquatorialGuinea,9.779,1.8533,[9.279 1.3533 10.279 2.3533],0.214,-0.072,0.501,0.257,0.173,-0.114,0.51,0.222,204.0,528.0
2015-01-31,Bata,EquatorialGuinea,9.779,1.8533,[9.279 1.3533 10.279 2.3533],0.208,-0.072,0.483,0.241,0.164,-0.12,0.488,0.201,186.0,520.0
2015-02-01,Bata,EquatorialGuinea,9.779,1.8533,[9.279 1.3533 10.279 2.3533],0.208,-0.071,0.501,0.261,0.179,-0.11,0.493,0.215,169.0,538.0
2015-02-02,Bata,EquatorialGuinea,9.779,1.8533,[9.279 1.3533 10.279 2.3533],0.208,-0.071,0.501,0.261,0.167,-0.127,0.506,0.209,169.0,508.0
2015-02-03,Bata,EquatorialGuinea,9.779,1.8533,[9.279 1.3533 10.279 2.3533],0.225,-0.087,0.677,0.302,0.167,-0.141,0.506,0.2,151.0,537.0
2015-02-04,Bata,EquatorialGuinea,9.779,1.8533,[9.279 1.3533 10.279 2.3533],0.225,-0.087,0.448,0.233,0.174,-0.14,0.472,0.199,140.0,509.0
2015-02-05,Bata,EquatorialGuinea,9.779,1.8533,[9.279 1.3533 10.279 2.3533],0.208,-0.089,0.398,0.205,0.174,-0.137,0.463,0.195,135.0,534.0
2015-02-06,Bata,EquatorialGuinea,9.779,1.8533,[9.279 1.3533 10.279 2.3533],0.214,-0.089,0.396,0.208,0.174,-0.096,0.479,0.207,110.0,519.0
2015-02-07,Bata,EquatorialGuinea,9.779,1.8533,[9.279 1.3533 10.279 2.3533],0.214,-0.089,0.398,0.204,0.155,-0.105,0.445,0.187,88.0,525.0
2015-02-08,Bata,EquatorialGuinea,9.779,1.8533,[9.279 1.3533 10.279 2.3533],0.214,-0.089,0.398,0.201,0.141,-0.117,0.429,0.169,106.0,534.0
2015-02-09,Bata,EquatorialGuinea,9.779,1.8533,[9.279 1.3533 10.279 2.3533],0.199,-0.087,0.398,0.208,0.141,-0.115,0.4,0.162,123.0,512.0
2015-02-10,Bata,EquatorialGuinea,9.779,1.8533,[9.279 1.3533 10.279 2.3533],0.199,-0.087,0.398,0.208,0.136,-0.121,0.411,0.167,123.0,537.0
2015-02-11,Bata,EquatorialGuinea,9.779,1.8533,[9.279 1.3533 10.279 2.3533],0.199,-0.087,0.398,0.208,0.161,-0.084,0.428,0.188,123.0,482.0
2015-02-12,Bata,EquatorialGuinea,9.779,1.8533,[9.279 1.3533 10.279 2.3533],0.263,-0.041,0.488,0.234,0.179,-0.055,0.457,0.205,114.0,516.0
2015-02-13,Bata,EquatorialGuinea,9.779,1.8533,[9.279 1.3533 10.279 2.3533],0.212,-0.097,0.425,0.205,0.177,-0.066,0.442,0.206,95.0,494.0
2015-02-14,Bata,EquatorialGuinea,9.779,1.8533,[9.279 1.3533 10.279 2.3533],0.217,-0.041,0.398,0.204,0.205,-0.055,0.462,0.217,113.0,508.0
2015-02-15,Bata,EquatorialGuinea,9.779,1.8533,[9.279 1.3533 10.279 2.3533],0.212,-0.071,0.398,0.189,0.219,-0.052,0.486,0.23,108.0,505.0
2015-02-16,Bata,EquatorialGuinea,9.779,1.8533,[9.279 1.3533 10.279 2.3533],0.246,-0.041,0.398,0.205,0.216,-0.061,0.483,0.227,123.0,497.0
2015-02-17,Bata,EquatorialGuinea,9.779,1.8533,[9.279 1.3533 10.279 2.3533],0.246,-0.041,0.406,0.205,0.222,-0.057,0.491,0.236,125.0,512.0
2015-02-18,Bata,EquatorialGuinea,9.779,1.8533,[9.279 1.3533 10.279 2.3533],0.246,-0.041,0.406,0.205,0.225,-0.05,0.486,0.24,125.0,481.0
2015-02-19,Bata,EquatorialGuinea,9.779,1.8533,[9.279 1.3533 10.279 2.3533],0.199,-0.071,0.495,0.208,0.213,-0.053,0.509,0.242,105.0,511.0
2015-02-20,Bata,EquatorialGuinea,9.779,1.8533,[9.279 1.3533 10.279 2.3533],0.246,0.069,0.526,0.281,0.218,-0.038,0.515,0.247,109.0,483.0
2015-02-21,Bata,EquatorialGuinea,9.779,1.8533,[9.279 1.3533 10.279 2.3533],0.246,0.058,0.534,0.289,0.226,-0.014,0.522,0.252,148.0,510.0
2015-02-22,Bata,EquatorialGuinea,9.779,1.8533,[9.279 1.3533 10.279 2.3533],0.246,0.058,0.534,0.293,0.233,-0.011,0.524,0.261,163.0,498.0
2015-02-23,Bata,EquatorialGuinea,9.779,1.8533,[9.279 1.3533 10.279 2.3533],0.26,0.099,0.554,0.325,0.236,0.018,0.529,0.274,150.0,504.0
2015-02-24,Bata,EquatorialGuinea,9.779,1.8533,[9.279 1.3533 10.279 2.3533],0.26,0.03,0.554,0.312,0.238,-0.018,0.55,0.272,149.0,511.0
2015-02-25,Bata,EquatorialGuinea,9.779,1.8533,[9.279 1.3533 10.279 2.3533],0.26,0.03,0.554,0.312,0.192,-0.028,0.516,0.241,149.0,486.0
2015-02-26,Bata,EquatorialGuinea,9.779,1.8533,[9.279 1.3533 10.279 2.3533],0.26,0.03,0.554,0.312,0.208,-0.043,0.509,0.238,149.0,533.0
2015-02-27,Bata,EquatorialGuinea,9.779,1.8533,[9.279 1.3533 10.279 2.3533],0.26,0.034,0.554,0.315,0.196,-0.042,0.533,0.251,156.0,499.0
2015-02-28,Bata,EquatorialGuinea,9.779,1.8533,[9.279 1.3533 10.279 2.3533],0.265,0.083,0.651,0.341,0.208,-0.057,0.56,0.247,145.0,532.0
2015-03-01,Bata,EquatorialGuinea,9.779,1.8533,[9.279 1.3533 10.279 2.3533],0.265,0.083,0.658,0.348,0.157,-0.08,0.53,0.227,115.0,509.0
2015-03-02,Bata,EquatorialGuinea,9.779,1.8533,[9.279 1.3533 10.279 2.3533],0.265,0.019,0.633,0.311,0.169,-0.085,0.515,0.219,146.0,524.0
2015-03-03,Bata,EquatorialGuinea,9.779,1.8533,[9.279 1.3533 10.279 2.3533],0.265,0.024,0.698,0.338,0.145,-0.097,0.493,0.197,139.0,523.0
2015-03-04,Bata,EquatorialGuinea,9.779,1.8533,[9.279 1.3533 10.279 2.3533],0.323,0.083,0.698,0.357,0.158,-0.081,0.509,0.2,164.0,515.0
2015-03-05,Bata,EquatorialGuinea,9.779,1.8533,[9.279 1.3533 10.279 2.3533],0.323,0.07,0.675,0.351,0.151,-0.082,0.502,0.199,182.0,534.0
2015-03-06,Bata,EquatorialGuinea,9.779,1.8533,[9.279 1.3533 10.279 2.3533],0.265,-0.083,0.651,0.294,0.149,-0.111,0.498,0.191,190.0,502.0
2015-03-07,Bata,EquatorialGuinea,9.779,1.8533,[9.279 1.3533 10.279 2.3533],0.247,-0.141,0.581,0.25,0.14,-0.126,0.487,0.185,184.0,532.0
2015-03-08,Bata,EquatorialGuinea,9.779,1.8533,[9.279 1.3533 10.279 2.3533],0.246,-0.155,0.578,0.238,0.132,-0.157,0.476,0.17,145.0,503.0
2015-03-09,Bata,EquatorialGuinea,9.779,1.8533,[9.279 1.3533 10.279 2.3533],0.242,-0.167,0.574,0.218,0.126,-0.158,0.47,0.164,137.0,527.0
2015-03-10,Bata,EquatorialGuinea,9.779,1.8533,[9.279 1.3533 10.279 2.3533],0.263,-0.141,0.563,0.244,0.14,-0.159,0.478,0.171,139.0,515.0
2015-03-11,Bata,EquatorialGuinea,9.779,1.8533,[9.279 1.3533 10.279 2.3533],0.314,-0.059,0.614,0.292,0.164,-0.151,0.491,0.185,148.0,523.0
2015-03-12,Bata,EquatorialGuinea,9.779,1.8533,[9.279 1.3533 10.279 2.3533],0.29,-0.059,0.581,0.277,0.174,-0.138,0.516,0.199,155.0,533.0
2015-03-13,Bata,EquatorialGuinea,9.779,1.8533,[9.279 1.3533 10.279 2.3533],0.26,-0.059,0.538,0.257,0.174,-0.124,0.464,0.196,172.0,512.0
2015-03-14,Bata,EquatorialGuinea,9.779,1.8533,[9.279 1.3533 10.279 2.3533],0.26,-0.059,0.5,0.254,0.165,-0.109,0.432,0.174,165.0,538.0
2015-03-15,Bata,EquatorialGuinea,9.779,1.8533,[9.279 1.3533 10.279 2.3533],0.26,-0.059,0.5,0.254,0.171,-0.102,0.43,0.181,165.0,484.0
2015-03-16,Bata,EquatorialGuinea,9.779,1.8533,[9.279 1.3533 10.279 2.3533],0.26,-0.07,0.497,0.253,0.186,-0.097,0.444,0.183,164.0,517.0
2015-03-17,Bata,EquatorialGuinea,9.779,1.8533,[9.279 1.3533 10.279 2.3533],0.283,-0.054,0.529,0.282,0.186,-0.106,0.452,0.183,139.0,496.0
2015-03-18,Bata,EquatorialGuinea,9.779,1.8533,[9.279 1.3533 10.279 2.3533],0.26,-0.059,0.496,0.232,0.189,-0.112,0.445,0.181,141.0,511.0
2015-03-19,Bata,EquatorialGuinea,9.779,1.8533,[9.279 1.3533 10.279 2.3533],0.249,-0.09,0.451,0.19,0.17,-0.12,0.415,0.161,114.0,510.0
2015-03-20,Bata,EquatorialGuinea,9.779,1.8533,[9.279 1.3533 10.279 2.3533],0.244,-0.1,0.451,0.18,0.156,-0.122,0.407,0.155,96.0,502.0
2015-03-21,Bata,EquatorialGuinea,9.779,1.8533,[9.279 1.3533 10.279 2.3533],0.29,0.031,0.496,0.266,0.171,-0.092,0.439,0.182,92.0,519.0
2015-03-22,Bata,EquatorialGuinea,9.779,1.8533,[9.279 1.3533 10.279 2.3533],0.26,-0.005,0.471,0.234,0.16,-0.092,0.421,0.171,101.0,487.0
2015-03-23,Bata,EquatorialGuinea,9.779,1.8533,[9.279 1.3533 10.279 2.3533],0.26,-0.005,0.471,0.234,0.171,-0.1,0.414,0.17,101.0,516.0
2015-03-24,Bata,EquatorialGuinea,9.779,1.8533,[9.279 1.3533 10.279 2.3533],0.249,-0.005,0.456,0.214,0.167,-0.085,0.407,0.17,98.0,488.0
2015-03-25,Bata,EquatorialGuinea,9.779,1.8533,[9.279 1.3533 10.279 2.3533],0.111,-0.07,0.446,0.161,0.149,-0.096,0.406,0.159,107.0,513.0
2015-03-26,Bata,EquatorialGuinea,9.779,1.8533,[9.279 1.3533 10.279 2.3533],0.094,-0.134,0.362,0.105,0.141,-0.114,0.397,0.15,84.0,502.0
2015-03-27,Bata,EquatorialGuinea,9.779,1.8533,[9.279 1.3533 10.279 2.3533],0.094,-0.134,0.362,0.11,0.133,-0.12,0.381,0.141,90.0,507.0
2015-03-28,Bata,EquatorialGuinea,9.779,1.8533,[9.279 1.3533 10.279 2.3533],0.03,-0.23,0.362,0.078,0.126,-0.137,0.424,0.147,95.0,517.0
2015-03-29,Bata,EquatorialGuinea,9.779,1.8533,[9.279 1.3533 10.279 2.3533],0.026,-0.202,0.362,0.075,0.152,-0.124,0.426,0.159,97.0,497.0
2015-03-30,Bata,EquatorialGuinea,9.779,1.8533,[9.279 1.3533 10.279 2.3533],0.026,-0.202,0.362,0.075,0.154,-0.121,0.447,0.17,97.0,544.0
2015-03-31,Bata,EquatorialGuinea,9.779,1.8533,[9.279 1.3533 10.279 2.3533],0.026,-0.202,0.362,0.075,0.147,-0.111,0.446,0.18,97.0,513.0
2015-04-01,Bata,EquatorialGuinea,9.779,1.8533,[9.279 1.3533 10.279 2.3533],0.018,-0.23,0.279,0.042,0.145,-0.107,0.422,0.171,91.0,544.0
2015-04-02,Bata,EquatorialGuinea,9.779,1.8533,[9.279 1.3533 10.279 2.3533],0.173,-0.126,0.474,0.169,0.18,-0.071,0.473,0.201,100.0,521.0
2015-04-03,Bata,EquatorialGuinea,9.779,1.8533,[9.279 1.3533 10.279 2.3533],0.173,-0.153,0.474,0.152,0.199,-0.064,0.484,0.211,126.0,536.0
2015-04-04,Bata,EquatorialGuinea,9.779,1.8533,[9.279 1.3533 10.279 2.3533],0.147,-0.178,0.471,0.156,0.207,-0.07,0.505,0.217,138.0,532.0
2015-04-05,Bata,EquatorialGuinea,9.779,1.8533,[9.279 1.3533 10.279 2.3533],0.118,-0.163,0.465,0.146,0.179,-0.092,0.457,0.188,150.0,524.0
2015-04-06,Bata,EquatorialGuinea,9.779,1.8533,[9.279 1.3533 10.279 2.3533],0.129,-0.153,0.465,0.162,0.192,-0.087,0.465,0.204,167.0,539.0
2015-04-07,Bata,EquatorialGuinea,9.779,1.8533,[9.279 1.3533 10.279 2.3533],0.173,-0.153,0.465,0.17,0.216,-0.089,0.465,0.213,175.0,509.0
2015-04-08,Bata,EquatorialGuinea,9.779,1.8533,[9.279 1.3533 10.279 2.3533],0.191,-0.128,0.485,0.185,0.216,-0.101,0.477,0.21,171.0,538.0
2015-04-09,Bata,EquatorialGuinea,9.779,1.8533,[9.279 1.3533 10.279 2.3533],0.169,-0.089,0.435,0.167,0.215,-0.088,0.463,0.205,165.0,510.0
2015-04-10,Bata,EquatorialGuinea,9.779,1.8533,[9.279 1.3533 10.279 2.3533],0.169,-0.089,0.443,0.167,0.218,-0.093,0.461,0.202,202.0,531.0
2015-04-11,Bata,EquatorialGuinea,9.779,1.8533,[9.279 1.3533 10.279 2.3533],0.169,-0.083,0.445,0.177,0.22,-0.09,0.468,0.211,196.0,521.0
2015-04-12,Bata,EquatorialGuinea,9.779,1.8533,[9.279 1.3533 10.279 2.3533],0.173,-0.065,0.464,0.201,0.207,-0.085,0.466,0.206,198.0,524.0
2015-04-13,Bata,EquatorialGuinea,9.779,1.8533,[9.279 1.3533 10.279 2.3533],0.173,-0.058,0.478,0.203,0.199,-0.095,0.49,0.209,220.0,530.0
2015-04-14,Bata,EquatorialGuinea,9.779,1.8533,[9.279 1.3533 10.279 2.3533],0.169,-0.081,0.464,0.189,0.202,-0.095,0.467,0.202,231.0,508.0
2015-04-15,Bata,EquatorialGuinea,9.779,1.8533,[9.279 1.3533 10.279 2.3533],0.169,-0.081,0.464,0.189,0.194,-0.103,0.467,0.196,231.0,532.0
2015-04-16,Bata,EquatorialGuinea,9.779,1.8533,[9.279 1.3533 10.279 2.3533],0.169,-0.081,0.464,0.189,0.195,-0.104,0.502,0.207,231.0,479.0
2015-04-17,Bata,EquatorialGuinea,9.779,1.8533,[9.279 1.3533 10.279 2.3533],0.108,-0.083,0.421,0.153,0.173,-0.099,0.477,0.193,212.0,511.0
2015-04-18,Bata,EquatorialGuinea,9.779,1.8533,[9.279 1.3533 10.279 2.3533],0.108,-0.081,0.421,0.15,0.174,-0.102,0.467,0.194,204.0,487.0
2015-04-19,Bata,EquatorialGuinea,9.779,1.8533,[9.279 1.3533 10.279 2.3533],0.113,-0.065,0.421,0.149,0.174,-0.099,0.459,0.192,197.0,502.0
2015-04-20,Bata,EquatorialGuinea,9.779,1.8533,[9.279 1.3533 10.279 2.3533],0.129,-0.065,0.421,0.153,0.197,-0.057,0.453,0.203,196.0,501.0
2015-04-21,Bata,EquatorialGuinea,9.779,1.8533,[9.279 1.3533 10.279 2.3533],0.116,-0.065,0.426,0.148,0.187,-0.077,0.454,0.195,170.0,496.0
2015-04-22,Bata,EquatorialGuinea,9.779,1.8533,[9.279 1.3533 10.279 2.3533],0.101,-0.081,0.418,0.139,0.178,-0.086,0.455,0.194,175.0,514.0
2015-04-23,Bata,EquatorialGuinea,9.779,1.8533,[9.279 1.3533 10.279 2.3533],0.135,-0.065,0.439,0.18,0.188,-0.074,0.457,0.203,194.0,484.0
2015-04-24,Bata,EquatorialGuinea,9.779,1.8533,[9.279 1.3533 10.279 2.3533],0.239,-0.065,0.484,0.21,0.205,-0.067,0.466,0.208,175.0,513.0
2015-04-25,Bata,EquatorialGuinea,9.779,1.8533,[9.279 1.3533 10.279 2.3533],0.151,-0.065,0.449,0.188,0.184,-0.057,0.464,0.201,143.0,486.0
2015-04-26,Bata,EquatorialGuinea,9.779,1.8533,[9.279 1.3533 10.279 2.3533],0.151,-0.081,0.442,0.182,0.173,-0.063,0.442,0.192,136.0,510.0
2015-04-27,Bata,EquatorialGuinea,9.779,1.8533,[9.279 1.3533 10.279 2.3533],0.154,-0.051,0.449,0.199,0.182,-0.065,0.456,0.201,132.0,494.0
2015-04-28,Bata,EquatorialGuinea,9.779,1.8533,[9.279 1.3533 10.279 2.3533],0.149,-0.089,0.439,0.177,0.185,-0.072,0.453,0.192,127.0,498.0
2015-04-29,Bata,EquatorialGuinea,9.779,1.8533,[9.279 1.3533 10.279 2.3533],0.154,-0.085,0.439,0.175,0.175,-0.096,0.447,0.176,135.0,502.0
2015-04-30,Bata,EquatorialGuinea,9.779,1.8533,[9.279 1.3533 10.279 2.3533],0.154,-0.085,0.439,0.175,0.18,-0.077,0.425,0.176,135.0,477.0
2015-05-01,Bata,EquatorialGuinea,9.779,1.8533,[9.279 1.3533 10.279 2.3533],0.154,-0.089,0.439,0.174,0.181,-0.073,0.433,0.177,138.0,524.0
2015-05-02,Bata,EquatorialGuinea,9.779,1.8533,[9.279 1.3533 10.279 2.3533],0.154,-0.085,0.417,0.175,0.171,-0.08,0.432,0.178,142.0,489.0
2015-05-03,Bata,EquatorialGuinea,9.779,1.8533,[9.279 1.3533 10.279 2.3533],0.154,-0.085,0.442,0.197,0.158,-0.105,0.448,0.167,124.0,523.0
2015-05-04,Bata,EquatorialGuinea,9.779,1.8533,[9.279 1.3533 10.279 2.3533],0.154,-0.051,0.397,0.187,0.161,-0.106,0.421,0.161,128.0,499.0
2015-05-05,Bata,EquatorialGuinea,9.779,1.8533,[9.279 1.3533 10.279 2.3533],0.154,-0.029,0.417,0.204,0.139,-0.121,0.424,0.151,138.0,511.0
2015-05-06,Bata,EquatorialGuinea,9.779,1.8533,[9.279 1.3533 10.279 2.3533],0.154,-0.029,0.443,0.211,0.142,-0.102,0.42,0.157,143.0,511.0
2015-05-07,Bata,EquatorialGuinea,9.779,1.8533,[9.279 1.3533 10.279 2.3533],0.154,-0.02,0.443,0.216,0.146,-0.105,0.4,0.151,130.0,502.0
2015-05-08,Bata,EquatorialGuinea,9.779,1.8533,[9.279 1.3533 10.279 2.3533],0.151,-0.028,0.371,0.163,0.152,-0.09,0.405,0.16,121.0,520.0
2015-05-09,Bata,EquatorialGuinea,9.779,1.8533,[9.279 1.3533 10.279 2.3533],0.151,-0.028,0.371,0.163,0.163,-0.084,0.412,0.165,121.0,490.0
2015-05-10,Bata,EquatorialGuinea,9.779,1.8533,[9.279 1.3533 10.279 2.3533],0.176,0.01,0.391,0.192,0.175,-0.084,0.422,0.174,114.0,519.0
2015-05-11,Bata,EquatorialGuinea,9.779,1.8533,[9.279 1.3533 10.279 2.3533],0.176,0.01,0.391,0.192,0.168,-0.086,0.413,0.171,114.0,491.0
2015-05-12,Bata,EquatorialGuinea,9.779,1.8533,[9.279 1.3533 10.279 2.3533],0.142,-0.028,0.346,0.141,0.15,-0.08,0.416,0.163,99.0,520.0
2015-05-13,Bata,EquatorialGuinea,9.779,1.8533,[9.279 1.3533 10.279 2.3533],0.164,0.021,0.391,0.203,0.16,-0.056,0.419,0.178,96.0,506.0
2015-05-14,Bata,EquatorialGuinea,9.779,1.8533,[9.279 1.3533 10.279 2.3533],0.214,0.048,0.404,0.253,0.194,-0.027,0.457,0.219,77.0,512.0
2015-05-15,Bata,EquatorialGuinea,9.779,1.8533,[9.279 1.3533 10.279 2.3533],0.214,0.046,0.401,0.222,0.172,-0.05,0.462,0.204,97.0,519.0
2015-05-16,Bata,EquatorialGuinea,9.779,1.8533,[9.279 1.3533 10.279 2.3533],0.214,0.048,0.401,0.226,0.179,-0.064,0.461,0.213,96.0,493.0
2015-05-17,Bata,EquatorialGuinea,9.779,1.8533,[9.279 1.3533 10.279 2.3533],0.214,0.048,0.404,0.226,0.2,-0.056,0.494,0.233,92.0,521.0
2015-05-18,Bata,EquatorialGuinea,9.779,1.8533,[9.279 1.3533 10.279 2.3533],0.214,0.048,0.404,0.226,0.219,-0.051,0.522,0.253,92.0,467.0
2015-05-19,Bata,EquatorialGuinea,9.779,1.8533,[9.279 1.3533 10.279 2.3533],0.297,0.019,0.483,0.256,0.245,-0.022,0.541,0.268,83.0,503.0
2015-05-20,Bata,EquatorialGuinea,9.779,1.8533,[9.279 1.3533 10.279 2.3533],0.297,0.021,0.404,0.229,0.246,-0.06,0.534,0.27,61.0,480.0
2015-05-21,Bata,EquatorialGuinea,9.779,1.8533,[9.279 1.3533 10.279 2.3533],0.294,0.019,0.404,0.21,0.232,-0.057,0.531,0.257,67.0,493.0
2015-05-22,Bata,EquatorialGuinea,9.779,1.8533,[9.279 1.3533 10.279 2.3533],0.294,0.019,0.404,0.211,0.233,-0.042,0.528,0.269,68.0,492.0
2015-05-23,Bata,EquatorialGuinea,9.779,1.8533,[9.279 1.3533 10.279 2.3533],0.249,0.005,0.404,0.225,0.223,-0.063,0.51,0.263,64.0,483.0
2015-05-24,Bata,EquatorialGuinea,9.779,1.8533,[9.279 1.3533 10.279 2.3533],0.249,0.005,0.404,0.225,0.212,-0.065,0.462,0.244,64.0,499.0
2015-05-25,Bata,EquatorialGuinea,9.779,1.8533,[9.279 1.3533 10.279 2.3533],0.249,0.005,0.404,0.225,0.217,-0.058,0.465,0.253,64.0,469.0
2015-05-26,Bata,EquatorialGuinea,9.779,1.8533,[9.279 1.3533 10.279 2.3533],0.249,0.005,0.404,0.225,0.255,-0.04,0.506,0.266,64.0,498.0
2015-05-27,Bata,EquatorialGuinea,9.779,1.8533,[9.279 1.3533 10.279 2.3533],0.293,-0.018,0.444,0.219,0.274,-0.06,0.517,0.264,65.0,469.0
2015-05-28,Bata,EquatorialGuinea,9.779,1.8533,[9.279 1.3533 10.279 2.3533],0.293,-0.137,0.444,0.187,0.277,-0.078,0.526,0.261,51.0,497.0
2015-05-29,Bata,EquatorialGuinea,9.779,1.8533,[9.279 1.3533 10.279 2.3533],0.293,-0.137,0.444,0.187,0.259,-0.095,0.508,0.247,51.0,487.0
2015-05-30,Bata,EquatorialGuinea,9.779,1.8533,[9.279 1.3533 10.279 2.3533],0.293,-0.153,0.572,0.268,0.265,-0.064,0.53,0.274,48.0,495.0
2015-05-31,Bata,EquatorialGuinea,9.779,1.8533,[9.279 1.3533 10.279 2.3533],0.293,-0.153,0.572,0.281,0.256,-0.093,0.518,0.252,50.0,504.0
2015-06-01,Bata,EquatorialGuinea,9.779,1.8533,[9.279 1.3533 10.279 2.3533],0.293,-0.153,0.572,0.281,0.233,-0.087,0.491,0.225,50.0,479.0
2015-06-02,Bata,EquatorialGuinea,9.779,1.8533,[9.279 1.3533 10.279 2.3533],0.293,-0.153,0.572,0.281,0.232,-0.084,0.49,0.227,50.0,526.0
2015-06-03,Bata,EquatorialGuinea,9.779,1.8533,[9.279 1.3533 10.279 2.3533],0.293,-0.153,0.572,0.274,0.175,-0.148,0.498,0.202,56.0,492.0
2015-06-04,Bata,EquatorialGuinea,9.779,1.8533,[9.279 1.3533 10.279 2.3533],0.293,-0.153,0.572,0.273,0.159,-0.147,0.479,0.184,53.0,527.0
2015-06-05,Bata,EquatorialGuinea,9.779,1.8533,[9.279 1.3533 10.279 2.3533],0.271,-0.153,0.494,0.262,0.156,-0.155,0.466,0.189,46.0,502.0
2015-06-06,Bata,EquatorialGuinea,9.779,1.8533,[9.279 1.3533 10.279 2.3533],0.271,-0.153,0.572,0.227,0.173,-0.139,0.493,0.188,55.0,514.0
2015-06-07,Bata,EquatorialGuinea,9.779,1.8533,[9.279 1.3533 10.279 2.3533],0.271,-0.153,0.456,0.213,0.153,-0.129,0.448,0.162,49.0,512.0
2015-06-08,Bata,EquatorialGuinea,9.779,1.8533,[9.279 1.3533 10.279 2.3533],0.271,-0.153,0.456,0.213,0.155,-0.145,0.461,0.171,49.0,504.0
2015-06-09,Bata,EquatorialGuinea,9.779,1.8533,[9.279 1.3533 10.279 2.3533],0.271,-0.153,0.456,0.213,0.141,-0.146,0.458,0.168,49.0,521.0
2015-06-10,Bata,EquatorialGuinea,9.779,1.8533,[9.279 1.3533 10.279 2.3533],0.192,-0.153,0.456,0.205,0.116,-0.179,0.44,0.152,51.0,490.0
2015-06-11,Bata,EquatorialGuinea,9.779,1.8533,[9.279 1.3533 10.279 2.3533],0.15,-0.09,0.582,0.204,0.126,-0.144,0.452,0.167,45.0,519.0
2015-06-12,Bata,EquatorialGuinea,9.779,1.8533,[9.279 1.3533 10.279 2.3533],0.15,-0.09,0.582,0.21,0.123,-0.17,0.429,0.158,43.0,491.0
2015-06-13,Bata,EquatorialGuinea,9.779,1.8533,[9.279 1.3533 10.279 2.3533],0.15,-0.157,0.494,0.201,0.111,-0.18,0.411,0.152,64.0,517.0
2015-06-14,Bata,EquatorialGuinea,9.779,1.8533,[9.279 1.3533 10.279 2.3533],0.15,-0.155,0.456,0.156,0.116,-0.178,0.406,0.153,48.0,506.0
2015-06-15,Bata,EquatorialGuinea,9.779,1.8533,[9.279 1.3533 10.279 2.3533],0.15,-0.09,0.456,0.162,0.11,-0.143,0.433,0.165,47.0,514.0
2015-06-16,Bata,EquatorialGuinea,9.779,1.8533,[9.279 1.3533 10.279 2.3533],0.133,-0.155,0.456,0.145,0.121,-0.162,0.453,0.158,49.0,522.0
2015-06-17,Bata,EquatorialGuinea,9.779,1.8533,[9.279 1.3533 10.279 2.3533],0.133,-0.155,0.456,0.145,0.123,-0.156,0.459,0.162,49.0,499.0
2015-06-18,Bata,EquatorialGuinea,9.779,1.8533,[9.279 1.3533 10.279 2.3533],0.133,-0.155,0.308,0.089,0.145,-0.118,0.514,0.193,43.0,525.0
2015-06-19,Bata,EquatorialGuinea,9.779,1.8533,[9.279 1.3533 10.279 2.3533],0.133,-0.155,0.308,0.089,0.166,-0.113,0.544,0.206,43.0,471.0
2015-06-20,Bata,EquatorialGuinea,9.779,1.8533,[9.279 1.3533 10.279 2.3533],0.026,-0.245,0.574,0.081,0.186,-0.121,0.561,0.209,39.0,508.0
2015-06-21,Bata,EquatorialGuinea,9.779,1.8533,[9.279 1.3533 10.279 2.3533],0.098,-0.166,0.308,0.139,0.148,-0.138,0.499,0.199,35.0,486.0
2015-06-22,Bata,EquatorialGuinea,9.779,1.8533,[9.279 1.3533 10.279 2.3533],0.026,-0.265,0.387,0.141,0.173,-0.158,0.512,0.213,45.0,501.0